Location: Natural Bridges National Monument
(37.6093°N, 109.9767°W)
Time: 05:11:54
(UTC-07:00)

Daily predictions for brighter satellites

Satellite Brightness Start Highest point End
(mag) Time Altitude Azimuth Time Altitude Azimuth Time Altitude Azimuth
Centaur D-1A AC-31 4.4 03:25:11 13° ESE 03:25:11 13° ESE 03:26:20 10° ESE
CENTAUR R/B 4.4 03:24:19 31° NNE 03:26:21 34° NE 03:33:52 10° ESE
Cosmos 2227 Rocket 3.2 04:17:25 42° NE 04:18:10 44° ENE 04:23:31 10° SE
Cosmos 1898 Rocket 4.5 04:32:45 40° NNE 04:32:45 40° NNE 04:36:08 10° NNE
Cosmos 2297 Rocket 2.9 04:30:14 31° N 04:32:38 50° ENE 04:38:07 10° SE
OAO 3 Rocket 4.2 04:36:49 44° ESE 04:36:49 44° ESE 04:40:20 10° E
Cosmos 1937 Rocket 3.8 04:39:13 64° ENE 04:39:13 64° ENE 04:43:48 10° NNE
CZ-4B R/B 3.4 04:34:26 10° NNE 04:39:51 68° ESE 04:41:08 51° SSE
Okean O Rocket 3.6 04:39:31 10° NNE 04:40:56 20° NNE 04:40:56 20° NNE
CZ-4B DEB 4.0 04:43:43 10° NNE 04:49:13 86° WNW 04:49:16 85° W
BREEZE-M DEB (TANK) 3.8 04:52:43 28° NE 04:52:43 28° NE 04:54:20 10° E
ASTRO E2 4.4 04:53:21 26° SE 04:53:21 26° SE 04:55:41 10° ESE
Cosmos 1821 Rocket 4.0 04:50:38 10° S 04:56:42 76° E 05:02:54 10° N
Cosmos 990 Rocket 3.8 04:57:00 79° NW 04:57:00 79° NW 05:02:12 10° NNE
Cosmos 2082 3.8 04:54:38 19° NNW 04:58:46 75° ENE 05:04:28 10° SSE
Cosmos 2278 3.5 04:58:07 66° SW 04:58:53 79° WNW 05:04:38 10° NNE
PAYLOAD B 4.1 04:53:56 10° N 04:59:24 68° WNW 04:59:28 68° WNW
CZ-3 R/B 3.2 04:53:06 33° WSW 05:01:29 54° S 05:08:08 10° ESE
Tiangong 1 4.1 05:07:45 11° E 05:07:45 11° E 05:07:52 10° E
Genesis I 4.0 05:09:15 43° N 05:09:15 43° N 05:12:05 10° NNE
Cosmos 2298 Rocket 3.9 05:11:02 57° WSW 05:11:49 64° WNW 05:17:06 10° NNE
CENTAUR R/B 3.1 05:11:35 20° NW 05:17:36 64° WSW 05:25:59 10° SSE
NOSS 8 (H) 4.3 05:24:59 71° NNW 05:24:59 71° NNW 05:28:12 10° NNE
Cosmos 2369 4.0 05:24:15 40° W 05:25:17 44° WNW 05:30:46 10° N
Cosmos 1980 Rocket 2.6 05:21:35 10° S 05:27:12 66° ESE 05:32:49 10° NNE
USA 116 3.9 05:23:46 10° S 05:27:57 77° WSW 05:32:44 10° NNW
Hubble Space Telescope 3.3 05:27:00 10° S 05:28:48 13° SSE 05:30:37 10° SE
Cosmos 2150 Rocket 4.1 05:28:27 36° WSW 05:30:01 48° WNW 05:35:01 10° N
IDEFIX/ARIANE 42P 2.7 05:24:53 10° NNE 05:30:08 78° ESE 05:35:20 10° S
NOAA 6 4.1 05:25:07 10° NNE 05:30:19 82° ESE 05:35:27 10° S
Cosmos 1000 Rocket 4.5 05:24:47 10° NNW 05:30:54 57° W 05:36:55 10° S
Okean-O 2.9 05:28:50 10° NNE 05:33:15 68° E 05:37:39 10° S
Lacrosse 5 rocket 2.8 05:34:58 13° NNW 05:37:58 31° NE 05:41:37 10° ESE
Cosmos 1605 Rocket 4.0 05:35:41 10° S 05:41:51 86° E 05:47:58 10° N
Cosmos 1656 4.3 05:40:56 29° W 05:42:18 33° WNW 05:47:12 10° N
DELTA 2 R/B(2) 4.1 05:43:46 38° WNW 05:44:55 79° N 05:47:13 10° E
ATLAS 5 CENTAUR R/B 3.7 05:48:57 10° S 05:52:48 30° ESE 05:56:55 10° NE
Meteor 2-10 Rocket 3.8 05:48:44 10° SSW 05:53:32 41° WNW 05:58:16 10° N
MTI 3.6 05:50:44 10° SSE 05:53:55 89° W 05:57:07 10° NNW
SL-16 R/B 3.9 05:51:21 10° S 05:56:28 36° ESE 06:01:36 10° NE
COSMO-SKYMED 1 2.6 05:52:13 10° S 05:56:29 58° W 06:00:46 10° NNW
Cosmos 1733 Rocket 3.9 05:52:33 10° N 05:56:50 52° E 06:01:06 10° SSE
PAYLOAD A 3.9 05:54:18 10° N 05:58:56 54° WNW 06:03:40 10° SSW
Cosmos 1697 Rocket 3.2 05:54:40 13° SW 05:59:18 38° WNW 06:04:30 10° N
SJ 16-02 1.3 05:55:43 10° SSW 06:00:06 66° WNW 06:04:31 10° N
Cosmos 2227 Rocket 3.2 05:59:22 17° WNW 06:01:51 23° W 06:06:11 10° SSW
Meteor 2-17 Rocket 4.4 06:00:30 10° SSW 06:06:27 61° W 06:12:28 10° N
SJ-12 4.0 06:02:23 10° NNE 06:06:34 82° ESE 06:10:41 10° S
MSX 3.8 06:01:59 10° N 06:07:45 78° WNW 06:13:30 10° SSW
Cosmos 1048 Rocket 4.0 06:06:43 10° NNW 06:11:54 82° ENE 06:17:00 10° SSE
CZ-2C R/B 2.6 06:09:34 10° N 06:14:31 56° WNW 06:19:32 10° SSW
Cosmos 2297 Rocket 3.4 06:12:13 10° NW 06:16:14 20° W 06:20:14 10° SW
Cosmos 1484 Rocket 3.4 06:12:20 10° NNE 06:16:17 62° E 06:20:14 10° S
Cosmos 1606 4.3 06:13:04 10° SSE 06:16:40 40° E 06:20:16 10° NNE
COSMOS 2441 4.4 06:12:00 10° N 06:16:52 65° WNW 06:21:42 10° SSW
Cosmos 1933 3.9 06:14:20 10° SW 06:18:04 35° WNW 06:21:49 10° NNW
OAO 3 Rocket 3.7 06:14:37 14° W 06:18:47 52° SSW 06:23:36 10° ESE
COSMOS 2455 3.3 06:12:59 10° NNW 06:19:00 66° ENE 06:24:59 10° SE
Cosmos 1459 Rocket 4.4 06:16:17 10° S 06:22:26 69° E 06:28:42 10° NNE
CZ-4 R/B 3.5 06:20:48 10° NE 06:24:13 30° E 06:27:37 10° SSE
Cosmos 1125 Rocket 3.7 06:20:03 10° SW 06:25:03 47° WNW 06:30:04 10° N
Cosmos 405 Rocket 2.8 06:22:31 10° SSW 06:26:28 58° W 06:30:23 10° N
Cosmos 158 Rocket 4.3 06:23:28 10° NNW 06:28:12 43° WSW 06:33:04 10° S
ASTRO E2 4.2 06:28:46 10° WSW 06:32:10 26° SSW 06:35:34 10° SE
Meteor 1-25 Rocket 4.5 06:28:32 10° N 06:34:15 80° E 06:40:02 10° SSE
Cosmos 2242 Rocket 4.2 06:36:54 10° SW 06:41:06 37° WNW 06:45:22 10° N
